Regional Weather Roundup
Issued by NWS Sioux Falls, SD

Home | Current Version | Previous Version | Text Only | Print | Product List | Glossary On
Versions: 1 2 3 4 5 6 7 8 9 10 11 12 13 14 15 16 17 18 19 20 21 22 23 24 25 26 27 28 29 30 31 32 33 34 35 36 37 38 39 40 41 42 43 44 45 46 47 48 49 50
000
ASUS43 KFSD 191310
RWRFSD

WEATHER ROUNDUP FOR SE SOUTH DAKOTA/SW MINNESOTA/NW IOWA
NATIONAL WEATHER SERVICE SIOUX FALLS SD
700 AM CST SUN NOV 19 2017

NOTE: "FAIR" INDICATES FEW OR NO CLOUDS BELOW 12,000 FEET WITH NO
SIGNIFICANT WEATHER AND OR OBSTRUCTIONS TO VISIBILITY.


SDZ038>040-050-052>070-191400-
SOUTHEAST SOUTH DAKOTA

CITY           SKY/WX    TMP DP  RH WIND       PRES   REMARKS
BROOKINGS      CLOUDY    21  16  81 S5        30.05F WCI  15
CHAMBERLAIN    CLOUDY    24  22  93 CALM      30.06F
HURON          CLOUDY    22  19  89 S5        30.05F WCI  16
MADISON        FAIR      25  19  80 SW10      30.05F WCI  15
MITCHELL       PTCLDY    27  22  81 SW8       30.08F WCI  19
SIOUX FALLS    CLOUDY    23  18  81 SW3       30.08F
WINNER         FAIR      29  19  66 SW9       30.06F WCI  20
YANKTON        PTCLDY    20  18  92 CALM      30.11F
$$

MNZ071-072-080-081-089-090-097-098-191400-
SOUTHWEST MINNESOTA

CITY           SKY/WX    TMP DP  RH WIND       PRES   REMARKS
FAIRMONT       CLEAR     19  14  81 W8        30.10F WCI   9
JACKSON        PTCLDY    19  14  79 CALM      30.09F
LUVERNE        CLOUDY    14  12  92 S3        30.10F
MARSHALL       CLOUDY    24  17  74 SW15      30.05F WCI  11
MONTEVIDEO     CLEAR     18  16  93 SW5       30.04F WCI  11
PIPESTONE      CLOUDY    18  12  79 SW6       30.05F WCI   9
REDWOOD FALLS  CLOUDY    18  12  77 SW7       30.07F WCI   9
WINDOM           N/A     18   7  62 SW6       30.08S WCI   9
WORTHINGTON    CLOUDY    19  15  84 SW10      30.08F WCI   7
$$

IAZ001>003-012>014-020>022-031-032-NEZ013-014-SDZ071-191400-
NORTHWEST IOWA

CITY           SKY/WX    TMP DP  RH WIND       PRES   REMARKS
CHEROKEE       CLEAR     21  18  89 SW5       30.14F WCI  15
DENISON        CLEAR     21  18  86 CALM      30.17F
ESTHERVILLE    CLOUDY    19  16  88 W7        30.10S WCI  10
LE MARS        CLEAR     21  18  86 S5        30.13F WCI  15
ORANGE CITY    CLEAR     21  21 100 SW3       30.10F
SHELDON        CLOUDY    18  16  93 SW6       30.09F WCI   9
SIOUX CITY     CLEAR     18  15  88 E6        30.16F WCI  10
SPENCER        CLOUDY    17  13  84 W3        30.11F
STORM LAKE     CLEAR     19  16  86 W8        30.13S WCI   9
$$

ABBREVIATIONS USED IN REMARKS
   TC - TEMPERATURE IN CELSIUS
  WCI - WIND CHILL INDEX
   HX - HEAT INDEX
  VSB - VISIBILITY





USA.gov is the U.S. government's official web portal to all federal, state and local government web resources and services.